| time (UTC) | temp C | wind direction | speed KPH | gust KPH | rain 1hr cm | rain 24hr cm | rain mn cm | humidity % | barometer mb |
| 20260508065003 | 10 | 212 | 4.8 | 9.7 | 0.00 | 0.05 | 0.00 | 92 | 1026.4 |
| 20260508064503 | 10 | 184 | 4.8 | 9.7 | 0.00 | 0.05 | 0.00 | 91 | 1026.5 |
| 20260508064003 | 10 | 158 | 4.8 | 11.3 | 0.00 | 0.05 | 0.00 | 91 | 1026.4 |
| 20260508063503 | 10 | 152 | 4.8 | 11.3 | 0.00 | 0.05 | 0.00 | 90 | 1026.5 |
| 20260508063003 | 10 | 164 | 3.2 | 8.0 | 0.00 | 0.05 | 0.00 | 90 | 1026.1 |
| 20260508062503 | 10 | 228 | 1.6 | 6.4 | 0.00 | 0.05 | 0.00 | 91 | 1026.4 |
| 20260508062003 | 10 | 239 | 3.2 | 8.0 | 0.00 | 0.05 | 0.00 | 91 | 1026.2 |
| 20260508061503 | 10 | 225 | 4.8 | 8.0 | 0.00 | 0.05 | 0.00 | 91 | 1026.4 |
| 20260508061025 | 10 | 236 | 4.8 | 8.0 | 0.00 | 0.05 | 0.00 | 91 | 1026.1 |
| 20260508060503 | 10 | 321 | 3.2 | 8.0 | 0.00 | 0.05 | 0.00 | 91 | 1026.3 |
| 20260508060025 | 10 | 283 | 3.2 | 9.7 | 0.00 | 0.05 | 0.00 | 91 | 1026.2 |
| 20260508055524 | 10 | 250 | 4.8 | 9.7 | 0.00 | 0.05 | 0.00 | 91 | 1026.3 |
| 20260508055003 | 10 | 232 | 4.8 | 9.7 | 0.00 | 0.05 | 0.00 | 91 | 1026.4 |
| 20260508054503 | 10 | 235 | 4.8 | 9.7 | 0.00 | 0.05 | 0.00 | 91 | 1026.2 |
| 20260508054003 | 10 | 198 | 3.2 | 9.7 | 0.00 | 0.05 | 0.00 | 90 | 1026.0 |
| 20260508053503 | 10 | 226 | 4.8 | 12.9 | 0.00 | 0.05 | 0.00 | 90 | 1025.8 |
| 20260508053004 | 10 | 223 | 4.8 | 12.9 | 0.00 | 0.05 | 0.00 | 90 | 1026.0 |
| 20260508052503 | 10 | 151 | 1.6 | 6.4 | 0.00 | 0.05 | 0.00 | 90 | 1025.8 |
| 20260508052003 | 10 | 20 | 1.6 | 3.2 | 0.00 | 0.05 | 0.00 | 90 | 1025.8 |
| 20260508051503 | 9 | 335 | 1.6 | 6.4 | 0.00 | 0.05 | 0.00 | 90 | 1025.8 |
| 20260508051025 | 10 | 288 | 1.6 | 11.3 | 0.00 | 0.05 | 0.00 | 90 | 1025.7 |
| 20260508050503 | 10 | 282 | 3.2 | 11.3 | 0.00 | 0.05 | 0.00 | 89 | 1025.7 |
| 20260508050003 | 10 | 296 | 3.2 | 9.7 | 0.00 | 0.05 | 0.00 | 90 | 1025.7 |
| 20260508045504 | 10 | 334 | 4.8 | 9.7 | 0.00 | 0.05 | 0.00 | 89 | 1025.7 |
| 20260508045003 | 10 | 319 | 4.8 | 9.7 | 0.00 | 0.05 | 0.00 | 89 | 1025.7 |
| 20260508044503 | 10 | 284 | 3.2 | 8.0 | 0.00 | 0.05 | 0.00 | 89 | 1025.5 |
| 20260508044003 | 10 | 292 | 4.8 | 9.7 | 0.00 | 0.05 | 0.00 | 90 | 1025.3 |
| 20260508043503 | 10 | 285 | 4.8 | 9.7 | 0.00 | 0.05 | 0.00 | 91 | 1025.8 |
| 20260508043004 | 9 | 304 | 4.8 | 12.9 | 0.00 | 0.05 | 0.00 | 91 | 1026.0 |
| 20260508042503 | 9 | 334 | 4.8 | 12.9 | 0.00 | 0.05 | 0.00 | 91 | 1026.0 |
| 20260508042003 | 9 | 311 | 4.8 | 11.3 | 0.00 | 0.05 | 0.00 | 91 | 1025.8 |
| 20260508041504 | 9 | 253 | 4.8 | 9.7 | 0.00 | 0.05 | 0.00 | 91 | 1025.8 |
| 20260508041003 | 9 | 237 | 3.2 | 9.7 | 0.00 | 0.05 | 0.00 | 92 | 1025.8 |
| 20260508040524 | 9 | 201 | 1.6 | 6.4 | 0.00 | 0.05 | 0.00 | 92 | 1026.1 |
| 20260508040003 | 9 | 189 | 1.6 | 6.4 | 0.00 | 0.05 | 0.00 | 93 | 1025.6 |
| 20260508035503 | 9 | 195 | 3.2 | 6.4 | 0.00 | 0.05 | 0.00 | 93 | 1025.8 |
| 20260508035003 | 9 | 102 | 3.2 | 8.0 | 0.00 | 0.05 | 0.00 | 93 | 1025.7 |
| 20260508034503 | 9 | 58 | 3.2 | 8.0 | 0.00 | 0.05 | 0.00 | 92 | 1026.0 |
| 20260508034003 | 9 | 35 | 3.2 | 8.0 | 0.00 | 0.05 | 0.00 | 92 | 1025.8 |
| 20260508033503 | 9 | 22 | 3.2 | 8.0 | 0.00 | 0.05 | 0.00 | 92 | 1025.6 |
| 20260508033003 | 9 | 193 | 3.2 | 6.4 | 0.00 | 0.05 | 0.00 | 92 | 1025.8 |
| 20260508032503 | 9 | 304 | 1.6 | 6.4 | 0.00 | 0.05 | 0.00 | 92 | 1025.8 |
| 20260508032003 | 9 | 308 | 3.2 | 8.0 | 0.00 | 0.05 | 0.00 | 91 | 1026.0 |
| 20260508031503 | 9 | 276 | 4.8 | 8.0 | 0.00 | 0.05 | 0.00 | 91 | 1025.6 |
| 20260508031003 | 9 | 247 | 4.8 | 8.0 | 0.00 | 0.05 | 0.00 | 91 | 1025.8 |
| 20260508030503 | 9 | 238 | 3.2 | 8.0 | 0.00 | 0.05 | 0.00 | 91 | 1025.6 |
| 20260508030003 | 9 | 49 | 1.6 | 6.4 | 0.00 | 0.05 | 0.00 | 91 | 1025.7 |
| 20260508025503 | 9 | 29 | 3.2 | 8.0 | 0.00 | 0.05 | 0.00 | 90 | 1025.4 |
| 20260508025003 | 9 | 17 | 3.2 | 8.0 | 0.00 | 0.05 | 0.00 | 90 | 1025.7 |
| 20260508024503 | 9 | 176 | 3.2 | 8.0 | 0.00 | 0.05 | 0.00 | 90 | 1025.7 |
| 20260508024003 | 9 | 182 | 3.2 | 6.4 | 0.00 | 0.05 | 0.00 | 89 | 1025.4 |
| 20260508023503 | 9 | 61 | 3.2 | 6.4 | 0.00 | 0.05 | 0.00 | 89 | 1025.5 |
| 20260508023024 | 9 | 39 | 3.2 | 6.4 | 0.00 | 0.05 | 0.00 | 88 | 1025.4 |
| 20260508022503 | 10 | 232 | 3.2 | 8.0 | 0.00 | 0.05 | 0.00 | 88 | 1025.3 |
| 20260508022003 | 10 | 328 | 3.2 | 8.0 | 0.00 | 0.05 | 0.00 | 87 | 1025.5 |
| 20260508021503 | 10 | 1 | 4.8 | 8.0 | 0.00 | 0.05 | 0.00 | 86 | 1025.4 |
| 20260508021004 | 10 | 36 | 3.2 | 8.0 | 0.00 | 0.05 | 0.00 | 85 | 1025.4 |
| 20260508020503 | 10 | 328 | 1.6 | 6.4 | 0.00 | 0.05 | 0.00 | 84 | 1025.5 |
| 20260508020003 | 10 | 229 | 1.6 | 6.4 | 0.00 | 0.05 | 0.00 | 83 | 1025.3 |
| 20260508015524 | 10 | 194 | 3.2 | 6.4 | 0.00 | 0.05 | 0.00 | 83 | 1025.1 |
| 20260508015003 | 10 | 125 | 1.6 | 6.4 | 0.00 | 0.05 | 0.00 | 85 | 1025.2 |
| 20260508014503 | 10 | 61 | 1.6 | 6.4 | 0.00 | 0.05 | 0.00 | 85 | 1025.3 |
| 20260508014003 | 10 | 135 | 1.6 | 6.4 | 0.00 | 0.05 | 0.00 | 85 | 1025.3 |
| 20260508013503 | 10 | 197 | 3.2 | 6.4 | 0.00 | 0.05 | 0.00 | 84 | 1025.3 |
| 20260508013003 | 10 | 187 | 3.2 | 6.4 | 0.00 | 0.05 | 0.00 | 84 | 1025.5 |
| 20260508012503 | 10 | 122 | 3.2 | 4.8 | 0.00 | 0.05 | 0.00 | 84 | 1025.6 |
| 20260508012003 | 10 | 75 | 3.2 | 6.4 | 0.00 | 0.05 | 0.00 | 84 | 1025.6 |
| 20260508011524 | 10 | 65 | 1.6 | 6.4 | 0.00 | 0.05 | 0.00 | 83 | 1025.7 |
| 20260508011003 | 11 | 152 | 1.6 | 3.2 | 0.00 | 0.05 | 0.00 | 82 | 1025.5 |
| 20260508010503 | 11 | 190 | 3.2 | 9.7 | 0.00 | 0.05 | 0.00 | 81 | 1025.6 |
| 20260508010003 | 11 | 187 | 4.8 | 14.5 | 0.00 | 0.05 | 0.00 | 80 | 1025.8 |
| 20260508005503 | 11 | 161 | 4.8 | 14.5 | 0.00 | 0.05 | 0.00 | 78 | 1025.8 |
| 20260508005003 | 11 | 108 | 3.2 | 8.0 | 0.00 | 0.05 | 0.00 | 80 | 1026.1 |
| 20260508004524 | 11 | 80 | 3.2 | 6.4 | 0.00 | 0.05 | 0.00 | 80 | 1025.8 |
| 20260508004003 | 11 | 156 | 3.2 | 9.7 | 0.00 | 0.05 | 0.00 | 79 | 1026.0 |
| 20260508003503 | 11 | 171 | 4.8 | 11.3 | 0.00 | 0.05 | 0.00 | 78 | 1026.2 |
| 20260508003003 | 11 | 180 | 6.4 | 14.5 | 0.00 | 0.05 | 0.00 | 79 | 1026.0 |
| 20260508002503 | 11 | 190 | 8.0 | 16.1 | 0.00 | 0.05 | 0.00 | 79 | 1026.2 |
| 20260508002004 | 11 | 199 | 11.3 | 20.9 | 0.00 | 0.05 | 0.00 | 79 | 1026.2 |
| 20260508001503 | 11 | 205 | 12.9 | 20.9 | 0.00 | 0.05 | 0.00 | 78 | 1026.2 |
| 20260508001003 | 12 | 208 | 12.9 | 20.9 | 0.00 | 0.05 | 0.00 | 78 | 1026.4 |
| 20260508000524 | 12 | 213 | 11.3 | 20.9 | 0.00 | 0.05 | 0.00 | 77 | 1026.4 |
| 20260508000003 | 12 | 214 | 11.3 | 20.9 | 0.00 | 0.05 | 0.00 | 76 | 1026.5 |
| 20260507235503 | 12 | 214 | 11.3 | 20.9 | 0.00 | 0.05 | 0.00 | 76 | 1026.5 |
| 20260507235024 | 12 | 212 | 11.3 | 17.7 | 0.00 | 0.05 | 0.00 | 76 | 1026.3 |
| 20260507234524 | 12 | 204 | 11.3 | 19.3 | 0.00 | 0.05 | 0.00 | 76 | 1026.6 |
| 20260507234003 | 12 | 204 | 12.9 | 24.1 | 0.00 | 0.05 | 0.00 | 75 | 1026.6 |
| 20260507233503 | 12 | 211 | 14.5 | 25.7 | 0.00 | 0.05 | 0.00 | 75 | 1026.8 |
| 20260507233003 | 12 | 216 | 16.1 | 29.0 | 0.00 | 0.05 | 0.00 | 74 | 1026.6 |
| 20260507232524 | 12 | 216 | 16.1 | 29.0 | 0.00 | 0.05 | 0.00 | 74 | 1026.7 |
| 20260507232003 | 12 | 217 | 16.1 | 25.7 | 0.00 | 0.05 | 0.00 | 74 | 1026.7 |
| 20260507231503 | 12 | 220 | 14.5 | 27.4 | 0.00 | 0.05 | 0.00 | 74 | 1026.8 |
| 20260507231003 | 12 | 224 | 16.1 | 27.4 | 0.00 | 0.05 | 0.00 | 74 | 1026.7 |
| 20260507230524 | 12 | 229 | 17.7 | 27.4 | 0.00 | 0.05 | 0.00 | 74 | 1026.9 |
| 20260507230025 | 12 | 232 | 17.7 | 27.4 | 0.00 | 0.05 | 0.00 | 74 | 1027.0 |
| 20260507225503 | 12 | 235 | 16.1 | 27.4 | 0.00 | 0.05 | 0.00 | 74 | 1026.9 |
| 20260507225024 | 12 | 239 | 16.1 | 27.4 | 0.00 | 0.05 | 0.00 | 74 | 1027.0 |
| 20260507224504 | 12 | 234 | 14.5 | 24.1 | 0.00 | 0.05 | 0.00 | 75 | 1027.0 |
| 20260507224003 | 12 | 232 | 16.1 | 25.7 | 0.00 | 0.05 | 0.00 | 75 | 1027.1 |
| 20260507223503 | 12 | 231 | 14.5 | 25.7 | 0.00 | 0.05 | 0.00 | 75 | 1027.2 |
| 20260507223003 | 12 | 229 | 14.5 | 25.7 | 0.00 | 0.05 | 0.00 | 75 | 1027.1 |
| 20260507222503 | 12 | 231 | 14.5 | 25.7 | 0.00 | 0.05 | 0.00 | 75 | 1027.2 |
| 20260507222003 | 12 | 232 | 16.1 | 29.0 | 0.00 | 0.05 | 0.00 | 75 | 1027.0 |
| 20260507221524 | 12 | 231 | 17.7 | 29.0 | 0.00 | 0.05 | 0.00 | 75 | 1027.3 |
| 20260507221003 | 12 | 228 | 19.3 | 33.8 | 0.00 | 0.05 | 0.00 | 76 | 1027.2 |
| 20260507220503 | 12 | 230 | 19.3 | 33.8 | 0.00 | 0.05 | 0.00 | 76 | 1027.1 |
| 20260507220004 | 12 | 233 | 20.9 | 32.2 | 0.00 | 0.05 | 0.00 | 77 | 1027.1 |
| 20260507215503 | 12 | 234 | 20.9 | 33.8 | 0.00 | 0.05 | 0.05 | 77 | 1027.2 |
| 20260507215025 | 12 | 235 | 20.9 | 33.8 | 0.00 | 0.05 | 0.05 | 77 | 1027.3 |
| 20260507214503 | 12 | 236 | 17.7 | 32.2 | 0.00 | 0.05 | 0.05 | 77 | 1027.2 |
| 20260507214003 | 12 | 238 | 17.7 | 27.4 | 0.00 | 0.05 | 0.05 | 77 | 1027.3 |
| 20260507213503 | 12 | 239 | 17.7 | 27.4 | 0.00 | 0.05 | 0.05 | 78 | 1027.3 |
| 20260507213003 | 12 | 240 | 17.7 | 27.4 | 0.00 | 0.05 | 0.05 | 77 | 1027.2 |
| 20260507212503 | 12 | 241 | 17.7 | 32.2 | 0.00 | 0.05 | 0.05 | 78 | 1027.2 |
| 20260507212003 | 12 | 239 | 19.3 | 32.2 | 0.00 | 0.05 | 0.05 | 78 | 1027.1 |
| 20260507211524 | 12 | 237 | 17.7 | 29.0 | 0.00 | 0.05 | 0.05 | 78 | 1027.2 |
| 20260507211003 | 12 | 238 | 17.7 | 27.4 | 0.00 | 0.05 | 0.05 | 78 | 1027.2 |
| 20260507210503 | 12 | 241 | 17.7 | 30.6 | 0.00 | 0.05 | 0.05 | 77 | 1027.1 |
| 20260507210003 | 12 | 239 | 19.3 | 30.6 | 0.00 | 0.05 | 0.05 | 77 | 1027.0 |
| 20260507205503 | 12 | 239 | 19.3 | 32.2 | 0.00 | 0.05 | 0.05 | 76 | 1027.0 |
| 20260507205003 | 12 | 235 | 20.9 | 32.2 | 0.00 | 0.05 | 0.05 | 75 | 1026.6 |
| 20260507204503 | 12 | 233 | 20.9 | 32.2 | 0.00 | 0.05 | 0.05 | 74 | 1026.7 |
| 20260507204003 | 12 | 235 | 19.3 | 32.2 | 0.00 | 0.05 | 0.05 | 73 | 1026.9 |
| 20260507203503 | 12 | 232 | 17.7 | 30.6 | 0.00 | 0.05 | 0.05 | 73 | 1026.8 |
| 20260507203003 | 12 | 226 | 17.7 | 30.6 | 0.00 | 0.05 | 0.05 | 72 | 1026.8 |
| 20260507202503 | 12 | 226 | 16.1 | 27.4 | 0.00 | 0.05 | 0.05 | 72 | 1026.9 |
| 20260507202024 | 12 | 232 | 17.7 | 25.7 | 0.00 | 0.05 | 0.05 | 71 | 1026.7 |
| 20260507201503 | 12 | 235 | 14.5 | 25.7 | 0.00 | 0.05 | 0.05 | 71 | 1026.7 |
| 20260507201003 | 12 | 233 | 11.3 | 19.3 | 0.00 | 0.05 | 0.05 | 73 | 1026.8 |
| 20260507200503 | 12 | 226 | 11.3 | 17.7 | 0.00 | 0.05 | 0.05 | 72 | 1026.7 |
| 20260507200024 | 12 | 223 | 11.3 | 22.5 | 0.00 | 0.05 | 0.05 | 71 | 1026.7 |
| 20260507195503 | 12 | 231 | 8.0 | 22.5 | 0.00 | 0.05 | 0.05 | 72 | 1026.5 |
| 20260507195003 | 12 | 237 | 9.7 | 20.9 | 0.00 | 0.05 | 0.05 | 73 | 1026.2 |
| 20260507194503 | 13 | 235 | 12.9 | 22.5 | 0.00 | 0.05 | 0.05 | 72 | 1026.3 |
| 20260507194003 | 13 | 225 | 14.5 | 27.4 | 0.00 | 0.05 | 0.05 | 71 | 1026.3 |
| 20260507193503 | 13 | 221 | 16.1 | 29.0 | 0.00 | 0.05 | 0.05 | 71 | 1026.2 |
| 20260507193003 | 13 | 220 | 16.1 | 29.0 | 0.00 | 0.05 | 0.05 | 70 | 1026.0 |
| 20260507192524 | 13 | 220 | 16.1 | 25.7 | 0.00 | 0.05 | 0.05 | 71 | 1025.5 |
| 20260507192003 | 13 | 218 | 14.5 | 25.7 | 0.00 | 0.05 | 0.05 | 71 | 1025.7 |
| 20260507191503 | 13 | 214 | 14.5 | 25.7 | 0.00 | 0.05 | 0.05 | 71 | 1025.7 |
| 20260507191003 | 13 | 217 | 17.7 | 30.6 | 0.00 | 0.05 | 0.05 | 71 | 1025.6 |
| 20260507190503 | 13 | 219 | 17.7 | 30.6 | 0.00 | 0.05 | 0.05 | 70 | 1025.5 |
| 20260507190004 | 13 | 210 | 14.5 | 25.7 | 0.00 | 0.05 | 0.05 | 70 | 1025.4 |
| 20260507185503 | 13 | 201 | 14.5 | 27.4 | 0.00 | 0.05 | 0.05 | 69 | 1025.5 |
| 20260507185003 | 13 | 202 | 14.5 | 27.4 | 0.00 | 0.05 | 0.05 | 69 | 1025.6 |
| 20260507184524 | 14 | 208 | 14.5 | 25.7 | 0.00 | 0.05 | 0.05 | 68 | 1025.4 |
| 20260507184003 | 14 | 208 | 14.5 | 25.7 | 0.00 | 0.05 | 0.05 | 67 | 1025.4 |
| 20260507183524 | 14 | 199 | 14.5 | 25.7 | 0.00 | 0.05 | 0.05 | 66 | 1025.2 |
| 20260507183003 | 15 | 189 | 14.5 | 25.7 | 0.00 | 0.05 | 0.05 | 65 | 1025.2 |
| 20260507182503 | 15 | 185 | 12.9 | 24.1 | 0.00 | 0.05 | 0.05 | 67 | 1025.2 |
| 20260507182003 | 15 | 187 | 12.9 | 24.1 | 0.00 | 0.05 | 0.05 | 67 | 1025.0 |
| 20260507181503 | 15 | 195 | 9.7 | 24.1 | 0.00 | 0.05 | 0.05 | 63 | 1025.2 |
| 20260507181003 | 16 | 280 | 6.4 | 17.7 | 0.00 | 0.05 | 0.05 | 58 | 1025.1 |
| 20260507180504 | 16 | 322 | 11.3 | 25.7 | 0.00 | 0.05 | 0.05 | 56 | 1024.9 |
| 20260507180003 | 16 | 320 | 12.9 | 25.7 | 0.00 | 0.05 | 0.05 | 53 | 1024.9 |
| 20260507175503 | 16 | 294 | 9.7 | 29.0 | 0.00 | 0.05 | 0.05 | 44 | 1024.7 |
| 20260507175024 | 16 | 268 | 11.3 | 29.0 | 0.00 | 0.05 | 0.05 | 49 | 1024.0 |
| 20260507174503 | 15 | 280 | 14.5 | 25.7 | 0.00 | 0.05 | 0.05 | 61 | 1024.5 |
| 20260507174003 | 15 | 289 | 14.5 | 25.7 | 0.00 | 0.05 | 0.05 | 60 | 1024.8 |
| 20260507173503 | 14 | 300 | 12.9 | 22.5 | 0.00 | 0.05 | 0.05 | 67 | 1024.8 |
| 20260507173004 | 14 | 296 | 12.9 | 25.7 | 0.00 | 0.05 | 0.05 | 67 | 1024.9 |
| 20260507172503 | 14 | 284 | 16.1 | 33.8 | 0.00 | 0.05 | 0.05 | 66 | 1025.0 |
| 20260507172003 | 15 | 287 | 24.1 | 43.5 | 0.00 | 0.05 | 0.05 | 63 | 1025.2 |
| 20260507171503 | 15 | 278 | 25.7 | 45.1 | 0.00 | 0.05 | 0.05 | 61 | 1025.3 |
| 20260507171003 | 17 | 254 | 19.3 | 45.1 | 0.00 | 0.05 | 0.05 | 55 | 1025.2 |
| 20260507170524 | 17 | 234 | 17.7 | 27.4 | 0.00 | 0.05 | 0.05 | 55 | 1025.3 |
| 20260507170024 | 17 | 213 | 14.5 | 27.4 | 0.00 | 0.05 | 0.05 | 55 | 1025.0 |
| 20260507165503 | 17 | 196 | 12.9 | 22.5 | 0.00 | 0.05 | 0.05 | 53 | 1024.7 |
| 20260507165004 | 17 | 181 | 14.5 | 27.4 | 0.00 | 0.05 | 0.05 | 54 | 1024.6 |
| 20260507164503 | 17 | 182 | 16.1 | 27.4 | 0.00 | 0.05 | 0.05 | 55 | 1024.8 |
| 20260507164003 | 17 | 185 | 17.7 | 29.0 | 0.00 | 0.05 | 0.05 | 54 | 1024.7 |
| 20260507163503 | 17 | 172 | 16.1 | 29.0 | 0.00 | 0.05 | 0.05 | 54 | 1024.6 |
| 20260507163003 | 17 | 162 | 14.5 | 25.7 | 0.00 | 0.05 | 0.05 | 50 | 1024.7 |
| 20260507162503 | 17 | 160 | 12.9 | 25.7 | 0.00 | 0.05 | 0.05 | 55 | 1024.5 |
| 20260507162003 | 17 | 161 | 12.9 | 20.9 | 0.00 | 0.05 | 0.05 | 55 | 1024.7 |
| 20260507161503 | 17 | 160 | 12.9 | 25.7 | 0.00 | 0.05 | 0.05 | 55 | 1024.7 |
| 20260507161003 | 17 | 163 | 14.5 | 25.7 | 0.00 | 0.05 | 0.05 | 55 | 1024.5 |
| 20260507160524 | 17 | 174 | 12.9 | 24.1 | 0.00 | 0.05 | 0.05 | 54 | 1024.4 |
| 20260507160003 | 17 | 181 | 14.5 | 29.0 | 0.00 | 0.05 | 0.05 | 58 | 1024.8 |
| 20260507155503 | 17 | 178 | 16.1 | 29.0 | 0.00 | 0.05 | 0.05 | 57 | 1024.6 |
| 20260507155003 | 17 | 168 | 14.5 | 25.7 | 0.00 | 0.05 | 0.05 | 58 | 1024.6 |
| 20260507154503 | 16 | 164 | 14.5 | 24.1 | 0.00 | 0.05 | 0.05 | 57 | 1024.8 |
| 20260507154004 | 16 | 161 | 14.5 | 24.1 | 0.00 | 0.05 | 0.05 | 60 | 1024.6 |
| 20260507153504 | 16 | 159 | 12.9 | 20.9 | 0.00 | 0.05 | 0.05 | 60 | 1024.4 |
| 20260507153003 | 16 | 168 | 11.3 | 22.5 | 0.00 | 0.05 | 0.05 | 59 | 1024.7 |
| 20260507152503 | 16 | 182 | 12.9 | 22.5 | 0.00 | 0.05 | 0.05 | 59 | 1024.7 |
| 20260507152003 | 16 | 178 | 12.9 | 20.9 | 0.00 | 0.05 | 0.05 | 60 | 1025.0 |
| 20260507151504 | 16 | 170 | 11.3 | 19.3 | 0.00 | 0.05 | 0.05 | 58 | 1025.1 |
| 20260507151024 | 16 | 167 | 8.0 | 16.1 | 0.00 | 0.05 | 0.05 | 59 | 1024.8 |
| 20260507150503 | 16 | 145 | 8.0 | 16.1 | 0.00 | 0.05 | 0.05 | 61 | 1025.1 |
| 20260507150004 | 16 | 141 | 8.0 | 16.1 | 0.00 | 0.05 | 0.05 | 59 | 1024.9 |
| 20260507145503 | 16 | 136 | 9.7 | 17.7 | 0.00 | 0.05 | 0.05 | 61 | 1024.9 |
| 20260507145003 | 16 | 127 | 11.3 | 20.9 | 0.00 | 0.05 | 0.05 | 60 | 1024.8 |
| 20260507144503 | 16 | 135 | 11.3 | 20.9 | 0.00 | 0.05 | 0.05 | 58 | 1024.7 |
| 20260507144024 | 17 | 135 | 11.3 | 24.1 | 0.00 | 0.05 | 0.05 | 61 | 1024.7 |
| 20260507143503 | 16 | 138 | 9.7 | 24.1 | 0.03 | 0.05 | 0.05 | 60 | 1025.1 |
| 20260507143003 | 17 | 146 | 9.7 | 19.3 | 0.05 | 0.05 | 0.05 | 58 | 1024.8 |
| 20260507142503 | 17 | 141 | 9.7 | 19.3 | 0.05 | 0.05 | 0.05 | 54 | 1024.9 |
| 20260507142003 | 17 | 141 | 9.7 | 17.7 | 0.05 | 0.05 | 0.05 | 59 | 1024.4 |
| 20260507141503 | 16 | 135 | 6.4 | 17.7 | 0.05 | 0.05 | 0.05 | 58 | 1024.8 |
| 20260507141003 | 16 | 110 | 4.8 | 9.7 | 0.05 | 0.05 | 0.05 | 60 | 1024.7 |
| 20260507140503 | 16 | 109 | 4.8 | 8.0 | 0.05 | 0.05 | 0.05 | 59 | 1024.8 |
| 20260507140003 | 15 | 126 | 3.2 | 8.0 | 0.05 | 0.05 | 0.05 | 62 | 1024.6 |
| 20260507135503 | 15 | 147 | 3.2 | 6.4 | 0.05 | 0.05 | 0.05 | 64 | 1025.0 |
| 20260507135004 | 15 | 149 | 1.6 | 4.8 | 0.05 | 0.05 | 0.05 | 66 | 1024.9 |
| 20260507134503 | 15 | 75 | 3.2 | 12.9 | 0.05 | 0.05 | 0.05 | 68 | 1024.9 |
| 20260507134024 | 15 | 28 | 4.8 | 12.9 | 0.05 | 0.05 | 0.05 | 67 | 1025.1 |
| 20260507133524 | 15 | 9 | 6.4 | 14.5 | 0.03 | 0.03 | 0.03 | 66 | 1025.1 |
| 20260507133004 | 15 | 10 | 9.7 | 17.7 | 0.00 | 0.00 | 0.00 | 65 | 1024.9 |
| 20260507132503 | 15 | 8 | 11.3 | 17.7 | 0.00 | 0.00 | 0.00 | 67 | 1025.0 |
| 20260507132003 | 15 | 5 | 9.7 | 14.5 | 0.00 | 0.00 | 0.00 | 61 | 1024.9 |
| 20260507131524 | 15 | 6 | 8.0 | 16.1 | 0.00 | 0.00 | 0.00 | 59 | 1025.3 |
| 20260507131003 | 16 | 16 | 9.7 | 19.3 | 0.00 | 0.00 | 0.00 | 54 | 1025.1 |
| 20260507130503 | 16 | 17 | 11.3 | 20.9 | 0.00 | 0.00 | 0.00 | 55 | 1025.0 |
| 20260507130024 | 16 | 14 | 14.5 | 20.9 | 0.00 | 0.00 | 0.00 | 52 | 1025.1 |
| 20260507125503 | 16 | 14 | 14.5 | 25.7 | 0.00 | 0.00 | 0.00 | 48 | 1025.4 |
| 20260507125003 | 16 | 15 | 14.5 | 25.7 | 0.00 | 0.00 | 0.00 | 48 | 1025.2 |
| 20260507124503 | 16 | 17 | 14.5 | 27.4 | 0.00 | 0.00 | 0.00 | 47 | 1025.5 |
| 20260507124003 | 16 | 25 | 16.1 | 33.8 | 0.00 | 0.00 | 0.00 | 48 | 1025.4 |
| 20260507123524 | 16 | 29 | 22.5 | 43.5 | 0.00 | 0.00 | 0.00 | 52 | 1025.4 |
| 20260507123024 | 16 | 19 | 24.1 | 43.5 | 0.00 | 0.00 | 0.00 | 53 | 1025.3 |
| 20260507122503 | 17 | 347 | 16.1 | 37.0 | 0.00 | 0.00 | 0.00 | 51 | 1025.4 |
| 20260507122003 | 18 | 318 | 9.7 | 35.4 | 0.00 | 0.00 | 0.00 | 46 | 1024.9 |
| 20260507121503 | 18 | 355 | 6.4 | 14.5 | 0.00 | 0.00 | 0.00 | 45 | 1025.1 |
| 20260507121003 | 18 | 30 | 4.8 | 16.1 | 0.00 | 0.00 | 0.00 | 46 | 1024.8 |
| 20260507120503 | 19 | 27 | 6.4 | 17.7 | 0.00 | 0.00 | 0.00 | 46 | 1024.8 |
| 20260507120004 | 18 | 31 | 8.0 | 17.7 | 0.00 | 0.00 | 0.00 | 48 | 1025.2 |
| 20260507115504 | 18 | 7 | 8.0 | 17.7 | 0.00 | 0.00 | 0.00 | 48 | 1024.9 |
| 20260507115003 | 19 | 324 | 8.0 | 17.7 | 0.00 | 0.00 | 0.00 | 43 | 1025.1 |
| 20260507114503 | 20 | 302 | 11.3 | 32.2 | 0.00 | 0.00 | 0.00 | 37 | 1025.1 |
| 20260507114003 | 19 | 288 | 16.1 | 32.2 | 0.00 | 0.00 | 0.00 | 39 | 1025.4 |
| 20260507113503 | 19 | 289 | 14.5 | 25.7 | 0.00 | 0.00 | 0.00 | 41 | 1025.3 |
| 20260507113024 | 19 | 285 | 14.5 | 27.4 | 0.00 | 0.00 | 0.00 | 41 | 1025.4 |
| 20260507112503 | 18 | 275 | 16.1 | 27.4 | 0.00 | 0.00 | 0.00 | 43 | 1025.5 |
| 20260507112003 | 18 | 278 | 17.7 | 32.2 | 0.00 | 0.00 | 0.00 | 43 | 1025.5 |
| 20260507111504 | 18 | 288 | 17.7 | 32.2 | 0.00 | 0.00 | 0.00 | 42 | 1025.5 |
| 20260507111003 | 18 | 291 | 19.3 | 32.2 | 0.00 | 0.00 | 0.00 | 40 | 1025.4 |
| 20260507110503 | 18 | 286 | 20.9 | 32.2 | 0.00 | 0.00 | 0.00 | 39 | 1025.7 |
| 20260507110003 | 18 | 286 | 20.9 | 35.4 | 0.00 | 0.00 | 0.00 | 41 | 1025.8 |
| 20260507105503 | 18 | 288 | 22.5 | 37.0 | 0.00 | 0.00 | 0.00 | 41 | 1025.8 |
| 20260507105024 | 18 | 285 | 20.9 | 37.0 | 0.00 | 0.00 | 0.00 | 40 | 1025.5 |
| 20260507104504 | 18 | 279 | 19.3 | 35.4 | 0.00 | 0.00 | 0.00 | 43 | 1025.8 |
| 20260507104003 | 18 | 262 | 17.7 | 35.4 | 0.00 | 0.00 | 0.00 | 43 | 1025.7 |
| 20260507103503 | 18 | 246 | 16.1 | 27.4 | 0.00 | 0.00 | 0.00 | 45 | 1025.8 |
| 20260507103003 | 17 | 256 | 17.7 | 27.4 | 0.00 | 0.00 | 0.00 | 47 | 1025.8 |
| 20260507102503 | 17 | 267 | 16.1 | 22.5 | 0.00 | 0.00 | 0.00 | 47 | 1026.0 |
| 20260507102003 | 17 | 269 | 12.9 | 22.5 | 0.00 | 0.00 | 0.00 | 48 | 1026.2 |
| 20260507101524 | 17 | 269 | 9.7 | 19.3 | 0.00 | 0.00 | 0.00 | 51 | 1026.3 |
| 20260507101003 | 17 | 278 | 6.4 | 12.9 | 0.00 | 0.00 | 0.00 | 51 | 1026.1 |
| 20260507100524 | 18 | 287 | 6.4 | 12.9 | 0.00 | 0.00 | 0.00 | 50 | 1026.0 |
| 20260507100003 | 18 | 283 | 6.4 | 12.9 | 0.00 | 0.00 | 0.00 | 50 | 1026.0 |
| 20260507095524 | 18 | 273 | 8.0 | 12.9 | 0.00 | 0.00 | 0.00 | 50 | 1026.0 |
| 20260507095003 | 18 | 263 | 6.4 | 14.5 | 0.00 | 0.00 | 0.00 | 49 | 1026.1 |
| 20260507094503 | 18 | 278 | 6.4 | 14.5 | 0.00 | 0.00 | 0.00 | 51 | 1025.7 |
| 20260507094003 | 18 | 277 | 6.4 | 12.9 | 0.00 | 0.00 | 0.00 | 49 | 1026.0 |
| 20260507093503 | 17 | 207 | 6.4 | 16.1 | 0.00 | 0.00 | 0.00 | 52 | 1026.0 |
| 20260507093003 | 17 | 176 | 6.4 | 16.1 | 0.00 | 0.00 | 0.00 | 54 | 1026.1 |
| 20260507092503 | 17 | 157 | 4.8 | 16.1 | 0.00 | 0.00 | 0.00 | 55 | 1026.0 |
| 20260507092003 | 16 | 145 | 4.8 | 12.9 | 0.00 | 0.00 | 0.00 | 58 | 1026.1 |
| 20260507091503 | 16 | 154 | 6.4 | 12.9 | 0.00 | 0.00 | 0.00 | 59 | 1025.7 |
| 20260507091003 | 16 | 163 | 8.0 | 12.9 | 0.00 | 0.00 | 0.00 | 60 | 1026.0 |
| 20260507090503 | 16 | 166 | 9.7 | 17.7 | 0.00 | 0.00 | 0.00 | 61 | 1026.0 |
| 20260507090024 | 16 | 163 | 9.7 | 17.7 | 0.00 | 0.00 | 0.00 | 63 | 1025.8 |
| 20260507085503 | 15 | 157 | 9.7 | 17.7 | 0.00 | 0.00 | 0.00 | 65 | 1026.0 |
| 20260507085003 | 15 | 166 | 9.7 | 17.7 | 0.00 | 0.00 | 0.00 | 66 | 1025.7 |
| 20260507084503 | 15 | 179 | 9.7 | 20.9 | 0.00 | 0.00 | 0.00 | 66 | 1026.1 |
| 20260507084003 | 15 | 175 | 11.3 | 20.9 | 0.00 | 0.00 | 0.00 | 67 | 1026.0 |
| 20260507083503 | 15 | 167 | 11.3 | 19.3 | 0.00 | 0.00 | 0.00 | 68 | 1025.5 |
| 20260507083003 | 15 | 158 | 12.9 | 20.9 | 0.00 | 0.00 | 0.00 | 70 | 1025.6 |
| 20260507082503 | 14 | 144 | 9.7 | 20.9 | 0.00 | 0.00 | 0.00 | 71 | 1026.0 |
| 20260507082003 | 13 | 124 | 8.0 | 14.5 | 0.00 | 0.00 | 0.00 | 74 | 1025.6 |
| 20260507081503 | 13 | 144 | 8.0 | 14.5 | 0.00 | 0.00 | 0.00 | 74 | 1025.6 |
| 20260507081003 | 13 | 183 | 8.0 | 20.9 | 0.00 | 0.00 | 0.00 | 74 | 1026.2 |
| 20260507080503 | 13 | 188 | 11.3 | 20.9 | 0.00 | 0.00 | 0.00 | 72 | 1026.1 |
| 20260507080003 | 13 | 184 | 11.3 | 20.9 | 0.00 | 0.00 | 0.00 | 73 | 1025.8 |
| 20260507075503 | 13 | 185 | 12.9 | 24.1 | 0.00 | 0.00 | 0.00 | 72 | 1025.8 |
| 20260507075003 | 13 | 202 | 16.1 | 30.6 | 0.00 | 0.00 | 0.00 | 73 | 1025.8 |
| 20260507074503 | 13 | 200 | 12.9 | 30.6 | 0.00 | 0.00 | 0.00 | 73 | 1025.7 |
| 20260507074024 | 13 | 180 | 9.7 | 19.3 | 0.00 | 0.00 | 0.00 | 75 | 1025.7 |
| 20260507073503 | 13 | 182 | 11.3 | 20.9 | 0.00 | 0.00 | 0.00 | 74 | 1025.8 |
| 20260507073003 | 13 | 172 | 11.3 | 22.5 | 0.00 | 0.00 | 0.00 | 76 | 1025.7 |
| 20260507072503 | 13 | 163 | 11.3 | 22.5 | 0.00 | 0.00 | 0.00 | 77 | 1025.5 |
| 20260507072003 | 13 | 164 | 12.9 | 22.5 | 0.00 | 0.00 | 0.00 | 78 | 1025.5 |
| 20260507071503 | 13 | 164 | 12.9 | 22.5 | 0.00 | 0.00 | 0.00 | 78 | 1025.5 |
| 20260507071003 | 13 | 160 | 11.3 | 20.9 | 0.00 | 0.00 | 0.00 | 78 | 1025.5 |
| 20260507070503 | 12 | 158 | 11.3 | 22.5 | 0.00 | 0.00 | 0.00 | 79 | 1025.3 |
| 20260507070005 | 12 | 162 | 11.3 | 22.5 | 0.00 | 0.00 | 0.00 | 80 | 1025.4 |
| 20260507065504 | 12 | 158 | 11.3 | 19.3 | 0.00 | 0.00 | 0.00 | 80 | 1025.2 |